Change the Weather History Date:

Friday, March 7, 2014

  Actual Average (KPRN) Record (KPRN)
Temperature  
Mean Temperature 51 °F -  
Max Temperature 61 °F 68 °F 85 °F (1974)
Min Temperature 41 °F 41 °F 24 °F (1966)
Degree Days  
Heating Degree Days 14    
Growing Degree Days 1 (Base 50)    
Moisture  
Dew Point 40 °F    
Average Humidity 81    
Maximum Humidity 93    
Minimum Humidity 52    
Precipitation  
Precipitation 0.01 in - - ()
Sea Level Pressure  
Sea Level Pressure 30.03 in    
Wind  
Wind Speed 5 mph (North)    
Max Wind Speed 12 mph    
Max Gust Speed -    
Visibility 7 miles    
Events      
Averages and records for this station are not official NWS values.
T = Trace of Precipitation, MM = Missing Value Source: NWS Daily Summary

Daily Weather History Graph

Daily Weather History Graph

Search for Another Location

Airport or City:

Trip Planner

Search our weather history database for the weather conditions in past years. The results will help you decide how hot, cold, wet, or windy it might be!

Date:

Astronomy

Mar. 07, 2014 Rise Set
Actual Time 6:08 AM CST 5:50 PM CST
Civil Twilight 5:43 AM CST 6:15 PM CST
Nautical Twilight 5:15 AM CST 6:43 PM CST
Astronomical Twilight 4:47 AM CST 7:11 PM CST
Moon 10:23 AM CST (3/7) No Moon Set
Length of Visible Light 12h 31m
Length of Day
11h 42m
Waxing Crescent, 42% of the Moon is Illuminated
Mar 7
Waxing Crescent
Mar 8
First Quarter
Mar 16
Full
Mar 23
Last Quarter
Mar 30
New

Hourly Weather History & Observations

Time (CST) Temp. Windchill Dew Point Humidity Pressure Visibility Wind Dir Wind Speed Gust Speed Precip Events Conditions
12:04 AM 42.1 °F 39.2 °F 39.0 °F 89% 29.98 in 2.5 mi NNW 4.6 mph - N/A   Overcast
12:15 AM 42.1 °F 38.4 °F 37.9 °F 85% 29.98 in 3.0 mi North 5.8 mph - N/A   Overcast
12:39 AM 41.0 °F 35.8 °F 37.9 °F 89% 29.98 in 6.0 mi North 8.1 mph - N/A   Overcast
12:53 AM 41.0 °F 36.4 °F 37.9 °F 89% 29.98 in 6.0 mi North 6.9 mph - N/A   Overcast
1:18 AM 41.0 °F - 39.0 °F 93% 29.98 in 3.0 mi Calm Calm - N/A   Overcast
1:46 AM 41.0 °F 36.4 °F 37.9 °F 89% 29.98 in 4.0 mi NNW 6.9 mph - 0.01 in   Overcast
1:53 AM 41.0 °F 36.4 °F 37.9 °F 89% 29.99 in 4.0 mi NNW 6.9 mph - 0.01 in   Overcast
2:05 AM 41.0 °F 37.1 °F 37.9 °F 89% 29.98 in 6.0 mi North 5.8 mph - N/A   Overcast
2:53 AM 41.0 °F 37.1 °F 37.9 °F 89% 29.98 in 4.0 mi North 5.8 mph - N/A   Overcast
3:09 AM 41.0 °F 36.4 °F 37.9 °F 89% 29.98 in 7.0 mi North 6.9 mph - N/A   Overcast
3:46 AM 41.0 °F 38.0 °F 37.9 °F 89% 29.99 in 6.0 mi Variable 4.6 mph - N/A   Overcast
3:53 AM 41.0 °F 38.0 °F 37.9 °F 89% 29.99 in 6.0 mi North 4.6 mph - N/A   Overcast
4:14 AM 41.0 °F 38.0 °F 37.9 °F 89% 30.00 in 9.0 mi NNW 4.6 mph - N/A   Overcast
4:30 AM 41.0 °F 38.0 °F 37.9 °F 89% 30.01 in 9.0 mi NNW 4.6 mph - N/A   Overcast
4:53 AM 41.0 °F 36.4 °F 37.0 °F 86% 30.03 in 10.0 mi NNW 6.9 mph - N/A   Overcast
5:29 AM 41.0 °F 37.1 °F 37.0 °F 86% 30.03 in 7.0 mi NNW 5.8 mph - N/A   Overcast
5:53 AM 41.0 °F 37.1 °F 37.0 °F 86% 30.03 in 6.0 mi North 5.8 mph - N/A   Overcast
6:53 AM 41.0 °F 37.1 °F 37.9 °F 89% 30.05 in 8.0 mi North 5.8 mph - N/A   Overcast
7:05 AM 42.1 °F 39.2 °F 37.9 °F 85% 30.06 in 8.0 mi North 4.6 mph - N/A   Overcast
7:15 AM 42.1 °F 38.4 °F 37.9 °F 85% 30.06 in 8.0 mi NNW 5.8 mph - N/A   Overcast
7:35 AM 42.1 °F 37.7 °F 37.9 °F 85% 30.05 in 9.0 mi NNE 6.9 mph - N/A   Overcast
7:53 AM 43.0 °F 39.5 °F 37.9 °F 82% 30.06 in 9.0 mi North 5.8 mph - N/A   Overcast
8:02 AM 43.0 °F 40.3 °F 39.0 °F 86% 30.07 in 9.0 mi North 4.6 mph - N/A   Overcast
8:09 AM 43.0 °F 39.5 °F 39.0 °F 86% 30.07 in 10.0 mi Variable 5.8 mph - N/A   Overcast
8:53 AM 45.0 °F 40.1 °F 39.0 °F 80% 30.07 in 10.0 mi NNE 9.2 mph - N/A   Overcast
9:21 AM 46.9 °F - 39.9 °F 77% 30.07 in 10.0 mi NNE 11.5 mph - N/A   Overcast
9:53 AM 46.9 °F - 39.9 °F 77% 30.09 in 10.0 mi NNE 9.2 mph - N/A   Overcast
10:53 AM 48.9 °F - 41.0 °F 74% 30.09 in 10.0 mi NNE 8.1 mph - N/A   Overcast
11:53 AM 55.0 °F - 42.1 °F 62% 30.05 in 10.0 mi ENE 10.4 mph - N/A   Mostly Cloudy
12:53 PM 60.1 °F - 43.0 °F 53% 30.02 in 10.0 mi East 9.2 mph - N/A   Mostly Cloudy
1:22 PM 59.0 °F - 43.0 °F 55% 30.01 in 10.0 mi NE 6.9 mph - N/A   Mostly Cloudy
1:53 PM 61.0 °F - 43.0 °F 52% 30.01 in 10.0 mi ENE 8.1 mph - N/A   Mostly Cloudy
2:53 PM 61.0 °F - 43.0 °F 52% 30.01 in 10.0 mi NNE 4.6 mph - N/A   Mostly Cloudy
3:53 PM 61.0 °F - 43.0 °F 52% 30.03 in 10.0 mi Calm Calm - N/A   Overcast
4:53 PM 61.0 °F - 45.0 °F 56% 30.04 in 10.0 mi Calm Calm - N/A   Overcast
5:53 PM 57.9 °F - 46.0 °F 65% 30.04 in 10.0 mi Calm Calm - N/A   Overcast
6:53 PM 54.0 °F - 46.9 °F 77% 30.05 in 10.0 mi ENE 4.6 mph - N/A   Scattered Clouds
7:53 PM 50.0 °F - 46.0 °F 86% 30.07 in 10.0 mi Calm Calm - N/A   Clear
8:53 PM 48.0 °F - 45.0 °F 89% 30.08 in 10.0 mi Calm Calm - N/A   Clear
9:53 PM 45.0 °F - 43.0 °F 93% 30.09 in 4.0 mi Calm Calm - N/A   Clear
10:34 PM 45.0 °F - 42.1 °F 90% 30.09 in 1.5 mi Calm Calm - N/A   Clear
10:50 PM 44.6 °F - 42.8 °F 93% 30.09 in 3.0 mi Calm Calm - N/A   Clear
10:53 PM 44.1 °F - 41.0 °F 89% 30.09 in 5.0 mi Calm Calm - N/A   Clear
11:53 PM 42.1 °F - 39.9 °F 92% 30.09 in 4.0 mi Calm Calm - N/A   Clear